| time (UTC) | temp C | wind direction | speed KPH | gust KPH | rain 1hr cm | rain 24hr cm | rain mn cm | humidity % | barometer mb |
| 20260509173032 | 10 | 168 | 4.8 | 24.1 | 0.00 | 0.53 | 0.53 | 84 | 1008.9 |
| 20260509171535 | 10 | 175 | 6.4 | 17.7 | 0.00 | 0.53 | 0.53 | 84 | 1008.8 |
| 20260509170056 | 10 | 162 | 11.3 | 22.5 | 0.00 | 0.53 | 0.53 | 84 | 1008.8 |
| 20260509164526 | 10 | 174 | 14.5 | 25.7 | 0.00 | 0.53 | 0.53 | 84 | 1009.0 |
| 20260509163046 | 10 | 188 | 8.0 | 22.5 | 0.00 | 0.53 | 0.53 | 85 | 1009.0 |
| 20260509161602 | 10 | 186 | 9.7 | 24.1 | 0.00 | 0.53 | 0.53 | 85 | 1009.3 |
| 20260509160029 | 10 | 186 | 14.5 | 25.7 | 0.00 | 0.53 | 0.53 | 85 | 1009.3 |
| 20260509154549 | 10 | 159 | 9.7 | 29.0 | 0.00 | 0.53 | 0.53 | 85 | 1009.5 |
| 20260509153024 | 10 | 178 | 12.9 | 22.5 | 0.00 | 0.53 | 0.53 | 86 | 1009.6 |
| 20260509151606 | 10 | 172 | 11.3 | 22.5 | 0.00 | 0.53 | 0.53 | 86 | 1009.7 |
| 20260509150050 | 9 | 168 | 12.9 | 24.1 | 0.00 | 0.58 | 0.53 | 86 | 1009.7 |
| 20260509144510 | 9 | 164 | 8.0 | 19.3 | 0.05 | 0.58 | 0.53 | 86 | 1009.8 |
| 20260509143042 | 9 | 178 | 9.7 | 22.5 | 0.08 | 0.58 | 0.53 | 86 | 1009.9 |
| 20260509141556 | 9 | 163 | 8.0 | 19.3 | 0.10 | 0.58 | 0.53 | 86 | 1010.0 |
| 20260509140016 | 8 | 150 | 3.2 | 12.9 | 0.10 | 0.89 | 0.53 | 86 | 1010.2 |
| 20260509134545 | 8 | 171 | 6.4 | 11.3 | 0.10 | 0.86 | 0.48 | 86 | 1010.3 |
| 20260509133004 | 8 | 143 | 6.4 | 14.5 | 0.10 | 0.84 | 0.46 | 86 | 1010.3 |
| 20260509131539 | 8 | 169 | 4.8 | 9.7 | 0.10 | 0.81 | 0.43 | 86 | 1010.4 |
| 20260509130104 | 8 | 148 | 4.8 | 17.7 | 0.10 | 0.81 | 0.41 | 86 | 1010.6 |
| 20260509124519 | 8 | 199 | 6.4 | 14.5 | 0.13 | 0.79 | 0.38 | 86 | 1010.5 |
| 20260509123102 | 8 | 178 | 6.4 | 12.9 | 0.15 | 0.76 | 0.36 | 86 | 1010.6 |
| 20260509121543 | 8 | 183 | 6.4 | 22.5 | 0.20 | 0.71 | 0.33 | 86 | 1010.8 |
| 20260509120016 | 8 | 208 | 8.0 | 16.1 | 0.25 | 0.71 | 0.30 | 85 | 1010.9 |
| 20260509114603 | 7 | 164 | 4.8 | 9.7 | 0.25 | 0.66 | 0.25 | 85 | 1011.1 |
| 20260509113026 | 7 | 150 | 4.8 | 11.3 | 0.20 | 0.61 | 0.20 | 85 | 1011.0 |
| 20260509111549 | 7 | 46 | 3.2 | 6.4 | 0.13 | 0.53 | 0.15 | 85 | 1011.1 |
| 20260509110013 | 7 | 143 | 1.6 | 8.0 | 0.05 | 0.46 | 0.05 | 85 | 1011.0 |
| 20260509104539 | 7 | 124 | 4.8 | 17.7 | 0.00 | 0.41 | 0.00 | 85 | 1010.9 |
| 20260509103057 | 7 | 178 | 6.4 | 12.9 | 0.00 | 0.41 | 0.00 | 85 | 1010.8 |
| 20260509101522 | 7 | 152 | 4.8 | 14.5 | 0.00 | 0.41 | 0.00 | 84 | 1010.6 |
| 20260509100050 | 7 | 152 | 4.8 | 11.3 | 0.00 | 0.41 | 0.00 | 84 | 1010.8 |
| 20260509094557 | 6 | 178 | 3.2 | 8.0 | 0.00 | 0.41 | 0.00 | 84 | 1010.8 |
| 20260509093031 | 6 | 171 | 4.8 | 9.7 | 0.00 | 0.41 | 0.00 | 84 | 1010.7 |
| 20260509091507 | 6 | 1 | 1.6 | 8.0 | 0.00 | 0.41 | 0.00 | 84 | 1010.7 |
| 20260509090055 | 6 | 152 | 3.2 | 8.0 | 0.00 | 0.41 | 0.00 | 84 | 1010.8 |
| 20260509084528 | 5 | 193 | 1.6 | 4.8 | 0.00 | 0.41 | 0.00 | 83 | 1011.1 |
| 20260509083041 | 5 | 296 | 1.6 | 9.7 | 0.00 | 0.41 | 0.00 | 83 | 1010.9 |
| 20260509081559 | 5 | 11 | 3.2 | 6.4 | 0.00 | 0.41 | 0.00 | 83 | 1011.1 |
| 20260509080015 | 5 | 344 | 4.8 | 6.4 | 0.00 | 0.41 | 0.00 | 83 | 1011.4 |
| 20260509074546 | 5 | 1 | 3.2 | 6.4 | 0.00 | 0.41 | 0.00 | 83 | 1011.4 |
| 20260509073007 | 5 | 342 | 3.2 | 8.0 | 0.00 | 0.41 | 0.00 | 83 | 1011.5 |
| 20260509071535 | 5 | 336 | 1.6 | 6.4 | 0.00 | 0.41 | 0.00 | 83 | 1011.5 |
| 20260509070055 | 5 | 1 | 3.2 | 6.4 | 0.00 | 0.41 | 0.00 | 83 | 1011.5 |
| 20260509064521 | 6 | 336 | 3.2 | 6.4 | 0.00 | 0.41 | 0.00 | 82 | 1011.7 |
| 20260509063004 | 6 | 223 | 1.6 | 8.0 | 0.00 | 0.41 | 0.00 | 81 | 1011.8 |
| 20260509061547 | 5 | 178 | 1.6 | 4.8 | 0.00 | 0.41 | 0.00 | 81 | 1012.0 |
| 20260509060109 | 5 | 102 | 3.2 | 4.8 | 0.00 | 0.41 | 0.00 | 81 | 1012.2 |
| 20260509054526 | 4 | 178 | 1.6 | 4.8 | 0.00 | 0.41 | 0.00 | 81 | 1012.2 |
| 20260509053049 | 3 | 46 | 3.2 | 6.4 | 0.00 | 0.41 | 0.00 | 82 | 1012.3 |
| 20260509051528 | 3 | 331 | 1.6 | 4.8 | 0.00 | 0.41 | 0.00 | 82 | 1012.4 |
| 20260509050048 | 3 | 28 | 3.2 | 6.4 | 0.00 | 0.41 | 0.00 | 81 | 1012.5 |
| 20260509044557 | 3 | 351 | 4.8 | 8.0 | 0.00 | 0.41 | 0.00 | 81 | 1012.5 |
| 20260509043012 | 2 | 1 | 4.8 | 8.0 | 0.00 | 0.41 | 0.00 | 81 | 1012.4 |
| 20260509041538 | 3 | 351 | 3.2 | 8.0 | 0.00 | 0.41 | 0.00 | 81 | 1012.6 |
| 20260509040058 | 3 | 339 | 4.8 | 9.7 | 0.00 | 0.41 | 0.41 | 81 | 1012.7 |
| 20260509034515 | 2 | 1 | 3.2 | 6.4 | 0.00 | 0.41 | 0.41 | 82 | 1012.7 |
| 20260509033040 | 3 | 15 | 3.2 | 9.7 | 0.00 | 0.41 | 0.41 | 82 | 1012.7 |
| 20260509031603 | 3 | 28 | 4.8 | 11.3 | 0.00 | 0.41 | 0.41 | 82 | 1012.7 |
| 20260509030032 | 3 | 1 | 6.4 | 9.7 | 0.00 | 0.41 | 0.41 | 81 | 1012.8 |
| 20260509024549 | 3 | 13 | 3.2 | 8.0 | 0.00 | 0.41 | 0.41 | 81 | 1013.0 |
| 20260509023014 | 4 | 46 | 3.2 | 8.0 | 0.00 | 0.41 | 0.41 | 81 | 1013.1 |
| 20260509021534 | 4 | 20 | 4.8 | 9.7 | 0.00 | 0.41 | 0.41 | 81 | 1012.9 |
| 20260509020022 | 5 | 13 | 6.4 | 8.0 | 0.00 | 0.41 | 0.41 | 81 | 1013.1 |
| 20260509014557 | 5 | 20 | 6.4 | 9.7 | 0.00 | 0.41 | 0.41 | 80 | 1013.0 |
| 20260509013105 | 5 | 347 | 3.2 | 6.4 | 0.00 | 0.41 | 0.41 | 80 | 1012.8 |
| 20260509011517 | 5 | 6 | 3.2 | 12.9 | 0.00 | 0.41 | 0.41 | 79 | 1012.6 |
| 20260509010035 | 5 | 13 | 6.4 | 9.7 | 0.00 | 0.41 | 0.41 | 79 | 1012.4 |
| 20260509004554 | 5 | 8 | 6.4 | 11.3 | 0.00 | 0.41 | 0.41 | 78 | 1012.2 |
| 20260509003016 | 6 | 1 | 4.8 | 8.0 | 0.00 | 0.41 | 0.41 | 75 | 1012.1 |
| 20260509001537 | 7 | 331 | 6.4 | 8.0 | 0.00 | 0.41 | 0.41 | 71 | 1011.9 |
| 20260509000055 | 8 | 1 | 6.4 | 8.0 | 0.00 | 0.41 | 0.41 | 68 | 1011.8 |
| 20260508234509 | 10 | 340 | 3.2 | 8.0 | 0.00 | 0.41 | 0.41 | 63 | 1011.6 |
| 20260508233036 | 10 | 344 | 4.8 | 11.3 | 0.00 | 0.41 | 0.41 | 61 | 1011.4 |
| 20260508231555 | 11 | 338 | 6.4 | 11.3 | 0.00 | 0.41 | 0.41 | 61 | 1011.4 |
| 20260508230048 | 11 | 347 | 6.4 | 9.7 | 0.00 | 0.41 | 0.41 | 59 | 1011.4 |
| 20260508224534 | 11 | 340 | 8.0 | 17.7 | 0.00 | 0.41 | 0.41 | 59 | 1011.5 |
| 20260508223059 | 12 | 23 | 4.8 | 14.5 | 0.00 | 0.41 | 0.41 | 57 | 1011.4 |
| 20260508221535 | 12 | 300 | 3.2 | 9.7 | 0.00 | 0.41 | 0.41 | 58 | 1011.4 |
| 20260508220059 | 11 | 197 | 3.2 | 17.7 | 0.00 | 0.41 | 0.41 | 59 | 1011.5 |
| 20260508214525 | 11 | 340 | 9.7 | 19.3 | 0.00 | 0.41 | 0.41 | 61 | 1011.7 |
| 20260508213107 | 11 | 269 | 11.3 | 20.9 | 0.00 | 0.41 | 0.41 | 57 | 1011.7 |
| 20260508211512 | 12 | 308 | 12.9 | 30.6 | 0.00 | 0.41 | 0.41 | 56 | 1011.7 |
| 20260508210035 | 12 | 241 | 11.3 | 29.0 | 0.00 | 0.41 | 0.41 | 55 | 1011.8 |
| 20260508204555 | 12 | 300 | 9.7 | 16.1 | 0.00 | 0.41 | 0.41 | 60 | 1011.8 |
| 20260508203013 | 12 | 308 | 12.9 | 22.5 | 0.00 | 0.41 | 0.41 | 54 | 1012.0 |
| 20260508201542 | 11 | 296 | 11.3 | 20.9 | 0.00 | 0.41 | 0.41 | 59 | 1012.1 |
| 20260508200017 | 11 | 223 | 6.4 | 24.1 | 0.00 | 0.41 | 0.41 | 63 | 1012.2 |
| 20260508194550 | 11 | 115 | 16.1 | 30.6 | 0.00 | 0.41 | 0.41 | 60 | 1012.5 |
| 20260508193054 | 10 | 225 | 8.0 | 24.1 | 0.00 | 0.41 | 0.41 | 67 | 1012.6 |
| 20260508191552 | 10 | 219 | 4.8 | 27.4 | 0.00 | 0.41 | 0.41 | 65 | 1012.9 |
| 20260508190010 | 10 | 257 | 14.5 | 30.6 | 0.00 | 0.41 | 0.41 | 67 | 1012.9 |
| 20260508184533 | 10 | 250 | 11.3 | 22.5 | 0.00 | 0.41 | 0.41 | 71 | 1013.1 |
| 20260508183058 | 8 | 318 | 12.9 | 29.0 | 0.00 | 0.41 | 0.41 | 75 | 1013.3 |
| 20260508181520 | 8 | 271 | 12.9 | 19.3 | 0.00 | 0.41 | 0.41 | 76 | 1013.5 |
| 20260508180037 | 7 | 309 | 9.7 | 27.4 | 0.00 | 0.41 | 0.41 | 74 | 1013.5 |
| 20260508174615 | 8 | 340 | 6.4 | 25.7 | 0.00 | 0.41 | 0.41 | 76 | 1013.5 |